Tracking 28790 objects as of 18-Apr-2024
HD Live streaming from Space Station
objects crossing your sky now

COSMOS 2251 DEB

Track COSMOS 2251 DEB now!
10-day predictions


NORAD ID: 38199
Int'l Code: 1993-036BSP
Perigee: 755.1 km
Apogee: 1,308.3 km
Inclination: 74.0 °
Period: 105.6 minutes
Semi major axis: 7402 km
RCS: 0.0096 m2 (small)
Launch date: June 16, 1993
Source: Commonwealth of Independent States (former USSR) (CIS)
Launch site: PLESETSK MISSILE AND SPACE COMPLEX (PKMTR)

Note: This is SATELLITE DEBRIS
Your satellite tracking list
Your tracking list is empty




NASA's NSSDC Master Catalog

Two Line Element Set (TLE):
1 38199U 93036BSP 24104.34408896  .00001044  00000-0  84837-3 0  9996
2 38199  73.9573 340.4273 0373690  27.3476 334.6771 13.63067097527261
Source of the keplerian elements: AFSPC